| time (UTC) | temp F | wind direction | speed MPH | gust MPH | rain 1hr in | rain 24hr in | rain mn in | humidity % | barometer mb |
| 20260906120700 | 75 | 322 | 6.0 | 9.0 | 0.00 | 0.00 | 0.00 | 33 | 1014.2 |
| 20260906120201 | 75 | 283 | 11.0 | 14.0 | 0.00 | 0.00 | 0.00 | 34 | 1014.2 |
| 20260906115700 | 76 | 305 | 11.0 | 15.0 | 0.00 | 0.00 | 0.00 | 34 | 1014.6 |
| 20260906115200 | 75 | 312 | 12.0 | 16.0 | 0.00 | 0.00 | 0.00 | 35 | 1014.6 |
| 20260906114700 | 76 | 310 | 12.0 | 18.0 | 0.00 | 0.00 | 0.00 | 34 | 1014.6 |
| 20260906114201 | 76 | 336 | 9.0 | 13.0 | 0.00 | 0.00 | 0.00 | 35 | 1014.6 |
| 20260906113701 | 76 | 359 | 11.0 | 14.0 | 0.00 | 0.00 | 0.00 | 36 | 1014.6 |
| 20260906113200 | 76 | 275 | 14.0 | 18.0 | 0.00 | 0.00 | 0.00 | 36 | 1014.6 |
| 20260906112702 | 77 | 319 | 10.0 | 14.0 | 0.00 | 0.00 | 0.00 | 35 | 1014.6 |
| 20260906112200 | 76 | 306 | 11.0 | 14.0 | 0.00 | 0.00 | 0.00 | 36 | 1014.6 |
| 20260906111700 | 76 | 317 | 18.0 | 22.0 | 0.00 | 0.00 | 0.00 | 37 | 1014.6 |
| 20260906111202 | 76 | 333 | 13.0 | 20.0 | 0.00 | 0.00 | 0.00 | 36 | 1014.6 |
| 20260906110659 | 76 | 308 | 5.0 | 8.0 | 0.00 | 0.00 | 0.00 | 36 | 1014.6 |
| 20260906110200 | 76 | 280 | 15.0 | 18.0 | 0.00 | 0.00 | 0.00 | 35 | 1014.6 |
| 20260906105701 | 76 | 335 | 13.0 | 14.0 | 0.00 | 0.00 | 0.00 | 35 | 1014.6 |
| 20260906105200 | 77 | 323 | 9.0 | 14.0 | 0.00 | 0.00 | 0.00 | 35 | 1014.6 |
| 20260906104700 | 77 | 286 | 6.0 | 7.0 | 0.00 | 0.00 | 0.00 | 34 | 1014.6 |
| 20260906104200 | 76 | 286 | 10.0 | 14.0 | 0.00 | 0.00 | 0.00 | 35 | 1014.6 |
| 20260906103700 | 75 | 315 | 17.0 | 18.0 | 0.00 | 0.00 | 0.00 | 35 | 1014.6 |
| 20260906103200 | 75 | 307 | 10.0 | 10.0 | 0.00 | 0.00 | 0.00 | 36 | 1014.6 |
| 20260906102700 | 75 | 281 | 7.0 | 9.0 | 0.00 | 0.00 | 0.00 | 37 | 1014.6 |
| 20260906102200 | 75 | 296 | 13.0 | 22.0 | 0.00 | 0.00 | 0.00 | 37 | 1014.6 |
| 20260906101700 | 75 | 319 | 11.0 | 13.0 | 0.00 | 0.00 | 0.00 | 36 | 1014.6 |
| 20260906101200 | 75 | 291 | 6.0 | 9.0 | 0.00 | 0.00 | 0.00 | 38 | 1014.6 |
| 20260906100700 | 75 | 299 | 7.0 | 9.0 | 0.00 | 0.00 | 0.00 | 38 | 1014.9 |
| 20260906100201 | 75 | 318 | 11.0 | 14.0 | 0.00 | 0.00 | 0.00 | 37 | 1014.6 |
| 20260906095700 | 74 | 259 | 7.0 | 9.0 | 0.00 | 0.00 | 0.00 | 38 | 1014.9 |
| 20260906095200 | 74 | 285 | 13.0 | 16.0 | 0.00 | 0.00 | 0.00 | 37 | 1014.9 |
| 20260906094700 | 74 | 360 | 11.0 | 14.0 | 0.00 | 0.00 | 0.00 | 37 | 1014.6 |
| 20260906094200 | 75 | 339 | 11.0 | 13.0 | 0.00 | 0.00 | 0.00 | 36 | 1014.9 |
| 20260906093700 | 74 | 315 | 11.0 | 20.0 | 0.00 | 0.00 | 0.00 | 37 | 1014.6 |
| 20260906093200 | 74 | 314 | 14.0 | 18.0 | 0.00 | 0.00 | 0.00 | 38 | 1014.9 |
| 20260906092700 | 74 | 258 | 13.0 | 15.0 | 0.00 | 0.00 | 0.00 | 38 | 1014.9 |
| 20260906092200 | 73 | 358 | 7.0 | 9.0 | 0.00 | 0.00 | 0.00 | 39 | 1014.9 |
| 20260906091700 | 73 | 256 | 12.0 | 16.0 | 0.00 | 0.00 | 0.00 | 40 | 1014.9 |
| 20260906091200 | 73 | 304 | 15.0 | 21.0 | 0.00 | 0.00 | 0.00 | 39 | 1014.9 |
| 20260906090702 | 73 | 327 | 11.0 | 14.0 | 0.00 | 0.00 | 0.00 | 38 | 1015.2 |
| 20260906090200 | 73 | 285 | 13.0 | 16.0 | 0.00 | 0.00 | 0.00 | 38 | 1015.2 |
| 20260906085700 | 73 | 339 | 12.0 | 15.0 | 0.00 | 0.00 | 0.00 | 37 | 1015.2 |
| 20260906085201 | 73 | 311 | 15.0 | 22.0 | 0.00 | 0.00 | 0.00 | 37 | 1015.2 |
| 20260906084700 | 73 | 18 | 9.0 | 11.0 | 0.00 | 0.00 | 0.00 | 37 | 1015.2 |
| 20260906084200 | 72 | 278 | 9.0 | 11.0 | 0.00 | 0.00 | 0.00 | 36 | 1015.2 |
| 20260906083700 | 73 | 318 | 15.0 | 17.0 | 0.00 | 0.00 | 0.00 | 39 | 1015.2 |
| 20260906083200 | 72 | 298 | 4.0 | 5.0 | 0.00 | 0.00 | 0.00 | 38 | 1015.2 |
| 20260906082700 | 73 | 321 | 15.0 | 17.0 | 0.00 | 0.00 | 0.00 | 37 | 1015.2 |
| 20260906082200 | 73 | 251 | 1.0 | 2.0 | 0.00 | 0.00 | 0.00 | 39 | 1015.2 |
| 20260906081700 | 72 | 323 | 7.0 | 8.0 | 0.00 | 0.00 | 0.00 | 43 | 1014.9 |
| 20260906081200 | 73 | 315 | 5.0 | 9.0 | 0.00 | 0.00 | 0.00 | 42 | 1015.2 |
| 20260906080700 | 71 | 288 | 9.0 | 13.0 | 0.00 | 0.00 | 0.00 | 43 | 1015.2 |
| 20260906080201 | 72 | 299 | 9.0 | 13.0 | 0.00 | 0.00 | 0.00 | 42 | 1015.2 |
| 20260906075700 | 72 | 327 | 4.0 | 6.0 | 0.00 | 0.00 | 0.00 | 43 | 1015.2 |
| 20260906075201 | 71 | 315 | 10.0 | 15.0 | 0.00 | 0.00 | 0.00 | 40 | 1015.2 |
| 20260906074700 | 72 | 327 | 6.0 | 7.0 | 0.00 | 0.00 | 0.00 | 41 | 1015.2 |
| 20260906074200 | 71 | 25 | 9.0 | 15.0 | 0.00 | 0.00 | 0.00 | 42 | 1015.2 |
| 20260906073700 | 71 | 317 | 7.0 | 8.0 | 0.00 | 0.00 | 0.00 | 41 | 1015.2 |
| 20260906073200 | 72 | 331 | 12.0 | 15.0 | 0.00 | 0.00 | 0.00 | 39 | 1015.2 |
| 20260906072700 | 72 | 286 | 7.0 | 7.0 | 0.00 | 0.00 | 0.00 | 40 | 1015.2 |
| 20260906072202 | 73 | 329 | 5.0 | 8.0 | 0.00 | 0.00 | 0.00 | 41 | 1015.2 |
| 20260906071700 | 74 | 317 | 6.0 | 9.0 | 0.00 | 0.00 | 0.00 | 38 | 1015.2 |
| 20260906071200 | 73 | 281 | 2.0 | 2.0 | 0.00 | 0.00 | 0.00 | 36 | 1015.2 |
| 20260906070700 | 72 | 62 | 5.0 | 6.0 | 0.00 | 0.00 | 0.00 | 37 | 1015.2 |
| 20260906070200 | 72 | 328 | 3.0 | 6.0 | 0.00 | 0.00 | 0.00 | 37 | 1014.9 |
| 20260906065700 | 72 | 348 | 2.0 | 5.0 | 0.00 | 0.00 | 0.00 | 37 | 1015.2 |
| 20260906065201 | 73 | 351 | 5.0 | 6.0 | 0.00 | 0.00 | 0.00 | 35 | 1015.2 |
| 20260906064703 | 73 | 321 | 4.0 | 5.0 | 0.00 | 0.00 | 0.00 | 35 | 1015.2 |
| 20260906064200 | 72 | 139 | 2.0 | 3.0 | 0.00 | 0.00 | 0.00 | 39 | 1015.2 |
| 20260906063700 | 73 | 27 | 7.0 | 8.0 | 0.00 | 0.00 | 0.00 | 39 | 1014.9 |
| 20260906063200 | 72 | 303 | 2.0 | 2.0 | 0.00 | 0.00 | 0.00 | 41 | 1015.2 |
| 20260906062700 | 72 | 66 | 0.0 | 1.0 | 0.00 | 0.00 | 0.00 | 40 | 1015.2 |
| 20260906062200 | 73 | 126 | 3.0 | 5.0 | 0.00 | 0.00 | 0.00 | 40 | 1014.9 |
| 20260906061700 | 72 | 263 | 0.0 | 0.0 | 0.00 | 0.00 | 0.00 | 41 | 1014.9 |
| 20260906061200 | 71 | 110 | 3.0 | 5.0 | 0.00 | 0.00 | 0.00 | 42 | 1015.2 |
| 20260906060700 | 71 | 340 | 2.0 | 3.0 | 0.00 | 0.00 | 0.00 | 41 | 1014.9 |
| 20260906060203 | 69 | 350 | 6.0 | 7.0 | 0.00 | 0.00 | 0.00 | 42 | 1014.9 |
| 20260906055700 | 70 | 13 | 3.0 | 3.0 | 0.00 | 0.00 | 0.00 | 42 | 1014.9 |
| 20260906055200 | 70 | 69 | 3.0 | 3.0 | 0.00 | 0.00 | 0.00 | 42 | 1014.9 |
| 20260906054700 | 69 | 352 | 2.0 | 2.0 | 0.00 | 0.00 | 0.00 | 42 | 1014.6 |
| 20260906054200 | 70 | 9 | 8.0 | 8.0 | 0.00 | 0.00 | 0.00 | 41 | 1014.9 |
| 20260906053700 | 69 | 115 | 1.0 | 1.0 | 0.00 | 0.00 | 0.00 | 42 | 1014.9 |
| 20260906053200 | 69 | 324 | 3.0 | 3.0 | 0.00 | 0.00 | 0.00 | 42 | 1014.6 |
| 20260906052700 | 69 | 322 | 5.0 | 7.0 | 0.00 | 0.00 | 0.00 | 39 | 1014.6 |
| 20260906052201 | 68 | 357 | 2.0 | 2.0 | 0.00 | 0.00 | 0.00 | 40 | 1014.9 |
| 20260906051700 | 69 | 357 | 3.0 | 5.0 | 0.00 | 0.00 | 0.00 | 39 | 1014.9 |
| 20260906051200 | 69 | 351 | 2.0 | 3.0 | 0.00 | 0.00 | 0.00 | 39 | 1014.9 |
| 20260906050700 | 68 | 353 | 5.0 | 6.0 | 0.00 | 0.00 | 0.00 | 38 | 1014.6 |
| 20260906050201 | 68 | 22 | 5.0 | 8.0 | 0.00 | 0.00 | 0.00 | 38 | 1014.9 |
| 20260906045700 | 68 | 351 | 6.0 | 8.0 | 0.00 | 0.00 | 0.00 | 38 | 1014.9 |
| 20260906045200 | 68 | 327 | 11.0 | 14.0 | 0.00 | 0.00 | 0.00 | 38 | 1014.9 |
| 20260906044700 | 68 | 324 | 9.0 | 10.0 | 0.00 | 0.00 | 0.00 | 37 | 1014.6 |
| 20260906044200 | 68 | 354 | 7.0 | 8.0 | 0.00 | 0.00 | 0.00 | 36 | 1014.6 |
| 20260906043701 | 68 | 351 | 4.0 | 5.0 | 0.00 | 0.00 | 0.00 | 36 | 1014.6 |
| 20260906043200 | 68 | 8 | 4.0 | 5.0 | 0.00 | 0.00 | 0.00 | 35 | 1014.2 |
| 20260906042700 | 68 | 9 | 8.0 | 9.0 | 0.00 | 0.00 | 0.00 | 35 | 1014.6 |
| 20260906042200 | 68 | 347 | 7.0 | 8.0 | 0.00 | 0.00 | 0.00 | 35 | 1014.6 |
| 20260906041700 | 67 | 326 | 3.0 | 3.0 | 0.00 | 0.00 | 0.00 | 35 | 1014.6 |
| 20260906041201 | 66 | 54 | 3.0 | 3.0 | 0.00 | 0.00 | 0.00 | 36 | 1014.6 |
| 20260906040700 | 66 | 37 | 4.0 | 5.0 | 0.00 | 0.00 | 0.00 | 36 | 1014.6 |
| 20260906040200 | 65 | 110 | 5.0 | 6.0 | 0.00 | 0.00 | 0.00 | 36 | 1014.6 |
| 20260906035700 | 66 | 20 | 5.0 | 5.0 | 0.00 | 0.00 | 0.00 | 36 | 1014.6 |
| 20260906035200 | 66 | 21 | 6.0 | 7.0 | 0.00 | 0.00 | 0.00 | 36 | 1014.6 |
| 20260906034700 | 66 | 352 | 5.0 | 7.0 | 0.00 | 0.00 | 0.00 | 36 | 1014.6 |
| 20260906034200 | 65 | 350 | 7.0 | 8.0 | 0.00 | 0.00 | 0.00 | 36 | 1014.2 |
| 20260906033700 | 65 | 26 | 7.0 | 7.0 | 0.00 | 0.00 | 0.00 | 36 | 1014.6 |
| 20260906033200 | 65 | 13 | 5.0 | 6.0 | 0.00 | 0.00 | 0.00 | 36 | 1014.2 |
| 20260906032701 | 66 | 25 | 8.0 | 8.0 | 0.00 | 0.00 | 0.00 | 36 | 1014.2 |
| 20260906032200 | 66 | 355 | 9.0 | 10.0 | 0.00 | 0.00 | 0.00 | 36 | 1014.2 |
| 20260906031700 | 66 | 344 | 4.0 | 5.0 | 0.00 | 0.00 | 0.00 | 36 | 1014.2 |
| 20260906031201 | 65 | 356 | 9.0 | 13.0 | 0.00 | 0.00 | 0.00 | 36 | 1014.2 |
| 20260906030700 | 66 | 342 | 6.0 | 8.0 | 0.00 | 0.00 | 0.00 | 36 | 1014.2 |
| 20260906030159 | 65 | 345 | 12.0 | 16.0 | 0.00 | 0.00 | 0.00 | 36 | 1014.2 |
| 20260906025700 | 65 | 324 | 7.0 | 8.0 | 0.00 | 0.00 | 0.00 | 37 | 1014.2 |
| 20260906025200 | 65 | 345 | 5.0 | 6.0 | 0.00 | 0.00 | 0.00 | 38 | 1014.2 |
| 20260906024700 | 65 | 342 | 8.0 | 10.0 | 0.00 | 0.00 | 0.00 | 37 | 1014.2 |
| 20260906024201 | 65 | 8 | 8.0 | 9.0 | 0.00 | 0.00 | 0.00 | 37 | 1014.2 |
| 20260906023700 | 65 | 354 | 8.0 | 10.0 | 0.00 | 0.00 | 0.00 | 37 | 1014.2 |
| 20260906023200 | 65 | 336 | 5.0 | 7.0 | 0.00 | 0.00 | 0.00 | 37 | 1014.2 |
| 20260906022701 | 66 | 330 | 5.0 | 7.0 | 0.00 | 0.00 | 0.00 | 37 | 1014.2 |
| 20260906022200 | 66 | 337 | 11.0 | 13.0 | 0.00 | 0.00 | 0.00 | 35 | 1014.2 |
| 20260906021700 | 66 | 327 | 12.0 | 13.0 | 0.00 | 0.00 | 0.00 | 33 | 1014.2 |
| 20260906021200 | 66 | 339 | 9.0 | 10.0 | 0.00 | 0.00 | 0.00 | 36 | 1014.2 |
| 20260906020700 | 66 | 333 | 7.0 | 8.0 | 0.00 | 0.00 | 0.00 | 34 | 1014.6 |
| 20260906020200 | 66 | 328 | 6.0 | 7.0 | 0.00 | 0.00 | 0.00 | 37 | 1014.2 |
| 20260906015700 | 66 | 349 | 7.0 | 8.0 | 0.00 | 0.00 | 0.00 | 34 | 1014.2 |
| 20260906015201 | 66 | 346 | 10.0 | 10.0 | 0.00 | 0.00 | 0.00 | 35 | 1014.2 |
| 20260906014700 | 66 | 339 | 8.0 | 13.0 | 0.00 | 0.00 | 0.00 | 37 | 1014.2 |
| 20260906014200 | 65 | 15 | 9.0 | 9.0 | 0.00 | 0.00 | 0.00 | 36 | 1014.2 |
| 20260906013700 | 66 | 16 | 10.0 | 10.0 | 0.00 | 0.00 | 0.00 | 36 | 1014.2 |
| 20260906013200 | 65 | 324 | 10.0 | 11.0 | 0.00 | 0.00 | 0.00 | 36 | 1014.2 |
| 20260906012700 | 65 | 355 | 4.0 | 5.0 | 0.00 | 0.00 | 0.00 | 41 | 1014.2 |
| 20260906012201 | 65 | 18 | 7.0 | 9.0 | 0.00 | 0.00 | 0.00 | 41 | 1014.2 |
| 20260906011701 | 64 | 20 | 8.0 | 10.0 | 0.00 | 0.00 | 0.00 | 42 | 1014.2 |
| 20260906011200 | 64 | 359 | 4.0 | 5.0 | 0.00 | 0.00 | 0.00 | 43 | 1014.2 |
| 20260906010701 | 65 | 22 | 7.0 | 7.0 | 0.00 | 0.00 | 0.00 | 43 | 1014.6 |
| 20260906010200 | 65 | 34 | 4.0 | 6.0 | 0.00 | 0.00 | 0.00 | 43 | 1014.2 |
| 20260906005702 | 65 | 360 | 5.0 | 6.0 | 0.00 | 0.00 | 0.00 | 43 | 1014.2 |
| 20260906005200 | 65 | 3 | 6.0 | 8.0 | 0.00 | 0.00 | 0.00 | 43 | 1014.2 |
| 20260906004700 | 65 | 45 | 3.0 | 5.0 | 0.00 | 0.00 | 0.00 | 44 | 1014.2 |
| 20260906004159 | 65 | 332 | 6.0 | 8.0 | 0.00 | 0.00 | 0.00 | 45 | 1014.2 |
| 20260906003700 | 65 | 341 | 7.0 | 9.0 | 0.00 | 0.00 | 0.00 | 46 | 1014.2 |
| 20260906003200 | 65 | 1 | 7.0 | 8.0 | 0.00 | 0.00 | 0.00 | 48 | 1014.2 |
| 20260906002700 | 65 | 330 | 9.0 | 10.0 | 0.00 | 0.00 | 0.00 | 49 | 1014.2 |
| 20260906002201 | 65 | 318 | 9.0 | 11.0 | 0.00 | 0.00 | 0.00 | 47 | 1014.2 |
| 20260906001700 | 65 | 326 | 10.0 | 13.0 | 0.00 | 0.00 | 0.00 | 50 | 1014.2 |
| 20260906001201 | 65 | 20 | 9.0 | 10.0 | 0.00 | 0.00 | 0.00 | 51 | 1014.2 |
| 20260906000700 | 65 | 15 | 9.0 | 10.0 | 0.00 | 0.00 | 0.00 | 50 | 1014.2 |
| 20260906000200 | 65 | 359 | 6.0 | 7.0 | 0.00 | 0.00 | 0.00 | 53 | 1014.2 |
| 20260905235702 | 64 | 340 | 8.0 | 9.0 | 0.00 | 0.00 | 0.00 | 54 | 1014.2 |
| 20260905235200 | 64 | 327 | 7.0 | 9.0 | 0.00 | 0.00 | 0.00 | 55 | 1014.2 |
| 20260905234700 | 64 | 338 | 9.0 | 10.0 | 0.00 | 0.00 | 0.00 | 56 | 1014.6 |
| 20260905234200 | 64 | 338 | 7.0 | 8.0 | 0.00 | 0.00 | 0.00 | 57 | 1014.2 |
| 20260905233700 | 65 | 333 | 9.0 | 9.0 | 0.00 | 0.00 | 0.00 | 58 | 1014.2 |
| 20260905233200 | 65 | 334 | 8.0 | 9.0 | 0.00 | 0.00 | 0.00 | 57 | 1014.2 |
| 20260905232700 | 65 | 320 | 8.0 | 9.0 | 0.00 | 0.00 | 0.00 | 58 | 1014.2 |
| 20260905232200 | 65 | 340 | 8.0 | 9.0 | 0.00 | 0.00 | 0.00 | 60 | 1014.2 |
| 20260905231700 | 65 | 339 | 13.0 | 16.0 | 0.00 | 0.00 | 0.00 | 59 | 1014.2 |
| 20260905231200 | 65 | 356 | 7.0 | 11.0 | 0.00 | 0.00 | 0.00 | 59 | 1014.2 |
| 20260905230700 | 65 | 329 | 8.0 | 11.0 | 0.00 | 0.00 | 0.00 | 59 | 1014.2 |
| 20260905230200 | 65 | 359 | 9.0 | 15.0 | 0.00 | 0.00 | 0.00 | 59 | 1014.2 |
| 20260905225700 | 65 | 358 | 11.0 | 13.0 | 0.00 | 0.00 | 0.00 | 60 | 1014.2 |
| 20260905225200 | 66 | 333 | 9.0 | 9.0 | 0.00 | 0.00 | 0.00 | 59 | 1014.2 |
| 20260905224700 | 66 | 335 | 10.0 | 11.0 | 0.00 | 0.00 | 0.00 | 59 | 1014.2 |
| 20260905224200 | 66 | 340 | 9.0 | 10.0 | 0.00 | 0.00 | 0.00 | 62 | 1014.2 |
| 20260905223701 | 66 | 9 | 8.0 | 10.0 | 0.00 | 0.00 | 0.00 | 63 | 1014.2 |
| 20260905223201 | 66 | 358 | 10.0 | 14.0 | 0.00 | 0.00 | 0.00 | 63 | 1014.2 |
| 20260905222701 | 66 | 349 | 8.0 | 9.0 | 0.00 | 0.00 | 0.00 | 63 | 1014.6 |
| 20260905222200 | 66 | 340 | 8.0 | 9.0 | 0.00 | 0.00 | 0.00 | 65 | 1014.6 |
| 20260905221700 | 66 | 11 | 10.0 | 11.0 | 0.00 | 0.00 | 0.00 | 65 | 1014.6 |
| 20260905221200 | 66 | 350 | 9.0 | 11.0 | 0.00 | 0.00 | 0.00 | 65 | 1014.6 |
| 20260905220700 | 66 | 349 | 11.0 | 14.0 | 0.00 | 0.00 | 0.00 | 65 | 1014.6 |
| 20260905220201 | 66 | 336 | 10.0 | 11.0 | 0.00 | 0.00 | 0.00 | 65 | 1014.6 |
| 20260905215700 | 67 | 338 | 9.0 | 10.0 | 0.00 | 0.00 | 0.00 | 65 | 1014.6 |
| 20260905215200 | 67 | 336 | 11.0 | 13.0 | 0.00 | 0.00 | 0.00 | 64 | 1014.9 |
| 20260905214701 | 67 | 2 | 9.0 | 10.0 | 0.00 | 0.00 | 0.00 | 63 | 1014.6 |
| 20260905214200 | 67 | 332 | 9.0 | 10.0 | 0.00 | 0.00 | 0.00 | 64 | 1014.9 |
| 20260905213700 | 67 | 351 | 11.0 | 11.0 | 0.00 | 0.00 | 0.00 | 64 | 1014.6 |
| 20260905213200 | 67 | 341 | 10.0 | 13.0 | 0.00 | 0.00 | 0.00 | 64 | 1014.9 |
| 20260905212732 | 67 | 21 | 7.0 | 8.0 | 0.00 | 0.00 | 0.00 | 56 | 1014.9 |
| 20260905212200 | 67 | 25 | 8.0 | 9.0 | 0.00 | 0.00 | 0.00 | 44 | 1014.9 |
| 20260905211700 | 67 | 28 | 10.0 | 11.0 | 0.00 | 0.00 | 0.00 | 40 | 1014.9 |
| 20260905211202 | 67 | 4 | 7.0 | 8.0 | 0.00 | 0.00 | 0.00 | 42 | 1014.9 |
| 20260905210700 | 67 | 21 | 10.0 | 11.0 | 0.00 | 0.00 | 0.00 | 47 | 1014.9 |
| 20260905210200 | 67 | 19 | 9.0 | 10.0 | 0.00 | 0.00 | 0.00 | 46 | 1014.9 |
| 20260905205700 | 67 | 23 | 6.0 | 8.0 | 0.00 | 0.00 | 0.00 | 51 | 1014.9 |
| 20260905205201 | 67 | 12 | 7.0 | 8.0 | 0.00 | 0.00 | 0.00 | 47 | 1014.9 |
| 20260905204700 | 67 | 23 | 7.0 | 8.0 | 0.00 | 0.00 | 0.00 | 46 | 1014.9 |
| 20260905204200 | 67 | 11 | 6.0 | 7.0 | 0.00 | 0.00 | 0.00 | 47 | 1015.2 |
| 20260905203701 | 67 | 15 | 8.0 | 8.0 | 0.00 | 0.00 | 0.00 | 46 | 1015.2 |
| 20260905203201 | 67 | 38 | 8.0 | 8.0 | 0.00 | 0.00 | 0.00 | 49 | 1015.2 |
| 20260905202701 | 67 | 40 | 11.0 | 13.0 | 0.00 | 0.00 | 0.00 | 50 | 1014.9 |
| 20260905202200 | 67 | 1 | 11.0 | 11.0 | 0.00 | 0.00 | 0.00 | 49 | 1015.2 |
| 20260905201700 | 67 | 81 | 7.0 | 8.0 | 0.00 | 0.00 | 0.00 | 47 | 1015.2 |
| 20260905201201 | 68 | 28 | 9.0 | 9.0 | 0.00 | 0.00 | 0.00 | 53 | 1015.2 |
| 20260905200700 | 68 | 354 | 6.0 | 6.0 | 0.00 | 0.00 | 0.00 | 64 | 1015.2 |
| 20260905200201 | 68 | 84 | 5.0 | 6.0 | 0.00 | 0.00 | 0.00 | 61 | 1015.2 |
| 20260905195700 | 68 | 10 | 4.0 | 5.0 | 0.00 | 0.00 | 0.00 | 64 | 1015.2 |
| 20260905195200 | 67 | 24 | 7.0 | 8.0 | 0.00 | 0.00 | 0.00 | 65 | 1015.2 |
| 20260905194701 | 67 | 346 | 8.0 | 9.0 | 0.00 | 0.00 | 0.00 | 66 | 1015.2 |
| 20260905194200 | 68 | 327 | 8.0 | 9.0 | 0.00 | 0.00 | 0.00 | 65 | 1015.2 |
| 20260905193705 | 68 | 305 | 9.0 | 10.0 | 0.00 | 0.00 | 0.00 | 65 | 1015.2 |
| 20260905193200 | 68 | 10 | 9.0 | 10.0 | 0.00 | 0.00 | 0.00 | 65 | 1015.2 |
| 20260905192700 | 68 | 342 | 10.0 | 11.0 | 0.00 | 0.00 | 0.00 | 64 | 1015.2 |
| 20260905192200 | 68 | 325 | 9.0 | 10.0 | 0.00 | 0.00 | 0.00 | 64 | 1015.2 |
| 20260905191700 | 68 | 15 | 9.0 | 10.0 | 0.00 | 0.00 | 0.00 | 64 | 1015.2 |
| 20260905191200 | 68 | 353 | 5.0 | 7.0 | 0.00 | 0.00 | 0.00 | 64 | 1015.2 |
| 20260905190700 | 68 | 344 | 13.0 | 15.0 | 0.00 | 0.00 | 0.00 | 64 | 1015.2 |
| 20260905190200 | 68 | 345 | 9.0 | 10.0 | 0.00 | 0.00 | 0.00 | 62 | 1015.2 |
| 20260905185700 | 68 | 351 | 9.0 | 11.0 | 0.00 | 0.00 | 0.00 | 62 | 1015.2 |
| 20260905185200 | 68 | 341 | 8.0 | 9.0 | 0.00 | 0.00 | 0.00 | 63 | 1015.2 |
| 20260905184700 | 68 | 350 | 10.0 | 11.0 | 0.00 | 0.00 | 0.00 | 63 | 1015.2 |
| 20260905184201 | 68 | 334 | 10.0 | 10.0 | 0.00 | 0.00 | 0.00 | 61 | 1015.2 |
| 20260905183700 | 69 | 348 | 10.0 | 11.0 | 0.00 | 0.00 | 0.00 | 60 | 1015.6 |
| 20260905183200 | 69 | 330 | 9.0 | 10.0 | 0.00 | 0.00 | 0.00 | 58 | 1015.2 |
| 20260905182700 | 69 | 326 | 9.0 | 9.0 | 0.00 | 0.00 | 0.00 | 58 | 1015.2 |
| 20260905182200 | 69 | 331 | 11.0 | 13.0 | 0.00 | 0.00 | 0.00 | 57 | 1015.2 |
| 20260905181700 | 69 | 349 | 10.0 | 13.0 | 0.00 | 0.00 | 0.00 | 57 | 1015.2 |
| 20260905181202 | 69 | 353 | 12.0 | 14.0 | 0.00 | 0.00 | 0.00 | 57 | 1015.2 |
| 20260905180700 | 69 | 345 | 11.0 | 14.0 | 0.00 | 0.00 | 0.00 | 58 | 1015.2 |
| 20260905180200 | 69 | 336 | 6.0 | 7.0 | 0.00 | 0.00 | 0.00 | 57 | 1015.2 |
| 20260905175700 | 69 | 320 | 8.0 | 9.0 | 0.00 | 0.00 | 0.00 | 57 | 1015.2 |
| 20260905175200 | 69 | 323 | 7.0 | 9.0 | 0.00 | 0.00 | 0.00 | 57 | 1015.2 |
| 20260905174700 | 69 | 335 | 6.0 | 7.0 | 0.00 | 0.00 | 0.00 | 57 | 1015.6 |
| 20260905174200 | 69 | 346 | 8.0 | 10.0 | 0.00 | 0.00 | 0.00 | 57 | 1015.2 |
| 20260905173700 | 69 | 353 | 7.0 | 8.0 | 0.00 | 0.00 | 0.00 | 57 | 1015.2 |
| 20260905173200 | 69 | 353 | 9.0 | 10.0 | 0.00 | 0.00 | 0.00 | 56 | 1015.2 |
| 20260905172700 | 69 | 341 | 7.0 | 8.0 | 0.00 | 0.00 | 0.00 | 56 | 1015.2 |
| 20260905172200 | 69 | 342 | 7.0 | 8.0 | 0.00 | 0.00 | 0.00 | 55 | 1015.2 |
| 20260905171700 | 69 | 339 | 5.0 | 6.0 | 0.00 | 0.00 | 0.00 | 55 | 1015.2 |
| 20260905171200 | 69 | 310 | 5.0 | 6.0 | 0.00 | 0.00 | 0.00 | 55 | 1015.2 |
| 20260905170701 | 69 | 330 | 8.0 | 9.0 | 0.00 | 0.00 | 0.00 | 54 | 1015.2 |
| 20260905170200 | 69 | 355 | 8.0 | 9.0 | 0.00 | 0.00 | 0.00 | 55 | 1014.9 |
| 20260905165700 | 69 | 330 | 9.0 | 9.0 | 0.00 | 0.00 | 0.00 | 55 | 1014.9 |
| 20260905165200 | 70 | 343 | 9.0 | 11.0 | 0.00 | 0.00 | 0.00 | 55 | 1014.6 |
| 20260905164701 | 70 | 325 | 7.0 | 8.0 | 0.00 | 0.00 | 0.00 | 55 | 1014.9 |
| 20260905164200 | 70 | 312 | 9.0 | 9.0 | 0.00 | 0.00 | 0.00 | 54 | 1014.9 |
| 20260905163700 | 70 | 319 | 7.0 | 8.0 | 0.00 | 0.00 | 0.00 | 55 | 1014.9 |
| 20260905163201 | 70 | 325 | 9.0 | 10.0 | 0.00 | 0.00 | 0.00 | 55 | 1014.6 |
| 20260905162701 | 70 | 315 | 8.0 | 9.0 | 0.00 | 0.00 | 0.00 | 55 | 1014.6 |
| 20260905162202 | 70 | 329 | 10.0 | 11.0 | 0.00 | 0.00 | 0.00 | 55 | 1014.6 |
| 20260905161702 | 70 | 318 | 6.0 | 8.0 | 0.00 | 0.00 | 0.00 | 55 | 1014.9 |
| 20260905161200 | 70 | 292 | 10.0 | 10.0 | 0.00 | 0.00 | 0.00 | 54 | 1014.6 |
| 20260905160700 | 70 | 317 | 8.0 | 8.0 | 0.00 | 0.00 | 0.00 | 54 | 1014.6 |
| 20260905160201 | 70 | 282 | 6.0 | 8.0 | 0.00 | 0.00 | 0.00 | 54 | 1014.6 |
| 20260905155700 | 71 | 328 | 8.0 | 8.0 | 0.00 | 0.00 | 0.00 | 54 | 1014.6 |
| 20260905155200 | 71 | 318 | 7.0 | 8.0 | 0.00 | 0.00 | 0.00 | 53 | 1014.9 |
| 20260905154700 | 71 | 342 | 6.0 | 8.0 | 0.00 | 0.00 | 0.00 | 52 | 1014.6 |
| 20260905154200 | 71 | 310 | 5.0 | 7.0 | 0.00 | 0.00 | 0.00 | 52 | 1014.6 |
| 20260905153700 | 71 | 295 | 7.0 | 7.0 | 0.00 | 0.00 | 0.00 | 53 | 1014.9 |
| 20260905153200 | 72 | 319 | 3.0 | 5.0 | 0.00 | 0.00 | 0.00 | 52 | 1014.6 |
| 20260905152701 | 72 | 286 | 6.0 | 7.0 | 0.00 | 0.00 | 0.00 | 51 | 1014.6 |
| 20260905152200 | 72 | 266 | 5.0 | 5.0 | 0.00 | 0.00 | 0.00 | 51 | 1014.6 |
| 20260905151700 | 72 | 312 | 5.0 | 8.0 | 0.00 | 0.00 | 0.00 | 51 | 1014.6 |
| 20260905151200 | 73 | 329 | 5.0 | 6.0 | 0.00 | 0.00 | 0.00 | 50 | 1014.6 |
| 20260905150700 | 74 | 262 | 8.0 | 9.0 | 0.00 | 0.00 | 0.00 | 49 | 1014.6 |
| 20260905150200 | 74 | 316 | 4.0 | 7.0 | 0.00 | 0.00 | 0.00 | 48 | 1014.6 |
| 20260905145700 | 74 | 261 | 9.0 | 10.0 | 0.00 | 0.00 | 0.00 | 47 | 1014.6 |
| 20260905145201 | 74 | 219 | 7.0 | 9.0 | 0.00 | 0.00 | 0.00 | 47 | 1014.6 |
| 20260905144701 | 74 | 290 | 6.0 | 8.0 | 0.00 | 0.00 | 0.00 | 47 | 1014.6 |
| 20260905144200 | 75 | 285 | 3.0 | 3.0 | 0.00 | 0.00 | 0.00 | 46 | 1014.6 |
| 20260905143701 | 75 | 283 | 9.0 | 14.0 | 0.00 | 0.00 | 0.00 | 45 | 1014.6 |
| 20260905143200 | 76 | 247 | 8.0 | 11.0 | 0.00 | 0.00 | 0.00 | 45 | 1014.6 |
| 20260905142702 | 76 | 316 | 4.0 | 6.0 | 0.00 | 0.00 | 0.00 | 43 | 1014.6 |
| 20260905142202 | 76 | 294 | 10.0 | 13.0 | 0.00 | 0.00 | 0.00 | 43 | 1014.6 |
| 20260905141701 | 76 | 267 | 7.0 | 14.0 | 0.00 | 0.00 | 0.00 | 42 | 1014.6 |
| 20260905141200 | 77 | 269 | 6.0 | 9.0 | 0.00 | 0.00 | 0.00 | 43 | 1014.6 |
| 20260905140700 | 77 | 291 | 6.0 | 9.0 | 0.00 | 0.00 | 0.00 | 42 | 1014.2 |
| 20260905140200 | 78 | 207 | 9.0 | 13.0 | 0.00 | 0.00 | 0.00 | 41 | 1014.2 |
| 20260905135700 | 80 | 272 | 4.0 | 7.0 | 0.00 | 0.00 | 0.00 | 39 | 1014.2 |
| 20260905135200 | 79 | 328 | 4.0 | 7.0 | 0.00 | 0.00 | 0.00 | 35 | 1014.2 |
| 20260905134700 | 80 | 214 | 6.0 | 9.0 | 0.00 | 0.00 | 0.00 | 38 | 1014.6 |
| 20260905134200 | 82 | 185 | 5.0 | 6.0 | 0.00 | 0.00 | 0.00 | 37 | 1014.2 |
| 20260905133700 | 83 | 62 | 3.0 | 3.0 | 0.00 | 0.00 | 0.00 | 19 | 1014.6 |
| 20260905133200 | 82 | 202 | 4.0 | 6.0 | 0.00 | 0.00 | 0.00 | 20 | 1014.2 |
| 20260905132700 | 82 | 134 | 4.0 | 5.0 | 0.00 | 0.00 | 0.00 | 20 | 1014.6 |
| 20260905132202 | 82 | 184 | 7.0 | 11.0 | 0.00 | 0.00 | 0.00 | 20 | 1014.6 |
| 20260905131702 | 83 | 260 | 2.0 | 3.0 | 0.00 | 0.00 | 0.00 | 20 | 1014.6 |
| 20260905131200 | 82 | 246 | 1.0 | 1.0 | 0.00 | 0.00 | 0.00 | 20 | 1014.2 |
| 20260905130700 | 82 | 206 | 6.0 | 9.0 | 0.00 | 0.00 | 0.00 | 21 | 1014.6 |
| 20260905130206 | 82 | 152 | 4.0 | 5.0 | 0.00 | 0.00 | 0.00 | 21 | 1014.6 |
| 20260905125700 | 84 | 125 | 2.0 | 2.0 | 0.00 | 0.00 | 0.00 | 19 | 1014.6 |
| 20260905125201 | 83 | 280 | 3.0 | 3.0 | 0.00 | 0.00 | 0.00 | 19 | 1014.6 |
| 20260905124700 | 82 | 137 | 6.0 | 8.0 | 0.00 | 0.00 | 0.00 | 19 | 1014.6 |
| 20260905124200 | 83 | 150 | 4.0 | 5.0 | 0.00 | 0.00 | 0.00 | 20 | 1014.6 |
| 20260905123700 | 82 | 194 | 3.0 | 5.0 | 0.00 | 0.00 | 0.00 | 19 | 1014.6 |
| 20260905123200 | 82 | 229 | 4.0 | 7.0 | 0.00 | 0.00 | 0.00 | 20 | 1014.6 |
| 20260905122700 | 82 | 23 | 5.0 | 8.0 | 0.00 | 0.00 | 0.00 | 20 | 1014.6 |
| 20260905122200 | 82 | 137 | 5.0 | 7.0 | 0.00 | 0.00 | 0.00 | 20 | 1014.6 |
| 20260905121700 | 82 | 291 | 4.0 | 6.0 | 0.00 | 0.00 | 0.00 | 19 | 1014.6 |
| 20260905121200 | 82 | 206 | 7.0 | 9.0 | 0.00 | 0.00 | 0.00 | 19 | 1014.6 |